Retour au catalogue

STARLINK-36477

ActifCommunicationsVLEO
NORAD 67355·PAYLOAD·🇺🇸 United States

Lancé Jan 9, 2026 depuis Cape Canaveral Space Force Station

Loading…

Prochains Passages (prochaines 24 heures)

TLE

FraisSource: CelesTrak SupGP

Époque: Sep 15, 2026, 03:59 UTC

1 67355C 26003X   26258.16645833 -.00053297  00000+0 -19309-2 0  2585
2 67355  43.0024 237.3622 0001380 269.9402 240.1940 15.27597455    11

Suivez STARLINK-36477 en temps réel avec AllMySat

Download on the App Store